Location: *
(46.1833°N, 22.7667°E)
Time: 00:46:13
(UTC+00:00)

Cosmos 2297 Rocket - Pass Details

Date: 17 September 2019
Orbit: 841 x 842 km, 71.0° (Epoch: 20 October)

Event Time Altitude Azimuth Distance (km) Brightness Sun altitude
Rises 19:28:00 0° 216° (SW) 3,386 5.3 -28.2°
Reaches altitude 10° 19:30:28 10° 220° (SW) 2,455 4.6 -28.5°
Maximum altitude 19:36:02 59° 300° (WNW) 967 2.6 -29.2°
Drops below altitude 10° 19:41:38 10° 20° (NNE) 2,470 4.8 -30.0°
Sets 19:44:08 0° 25° (NNE) 3,409 5.6 -30.3°
